Regional Weather Roundup
Issued by NWS Sioux Falls, SD

Home | Current Version | Previous Version | Graphics & Text | Print | Product List | Glossary Off
Versions: 1 2 3 4 5 6 7 8 9 10 11 12 13 14 15 16 17 18 19 20 21 22 23 24 25 26 27 28 29 30 31 32 33 34 35 36 37 38 39 40 41 42 43 44 45 46 47 48 49 50

000
ASUS43 KFSD 280910
RWRFSD

WEATHER ROUNDUP FOR SE SOUTH DAKOTA/SW MINNESOTA/NW IOWA
NATIONAL WEATHER SERVICE SIOUX FALLS SD
400 AM CDT THU MAY 28 2015

NOTE: "FAIR" INDICATES FEW OR NO CLOUDS BELOW 12,000 FEET WITH NO
SIGNIFICANT WEATHER AND OR OBSTRUCTIONS TO VISIBILITY.


SDZ038>040-050-052>070-281000-
SOUTHEAST SOUTH DAKOTA

CITY           SKY/WX    TMP DP  RH WIND       PRES   REMARKS
BROOKINGS      CLOUDY    63  52  67 SE7       30.02F
CHAMBERLAIN    CLOUDY    62  56  80 S10       29.96S
HURON            N/A    N/A N/A N/A MISG      29.95F
MADISON        CLOUDY    64  50  59 S8        30.02S
MITCHELL       CLOUDY    63  52  67 SE9       29.98S
SIOUX FALLS    MOCLDY    65  50  58 S8        30.02S
WINNER         CLOUDY    64  55  72 S9        29.95F
YANKTON        CLOUDY    64  52  63 CALM      30.00S
$$

MNZ071-072-080-081-089-090-097-098-281000-
SOUTHWEST MINNESOTA

CITY           SKY/WX    TMP DP  RH WIND       PRES   REMARKS
FAIRMONT       CLEAR     61  52  72 S7        30.06R
JACKSON        CLEAR     59  52  77 S7        30.07S
LUVERNE        PTCLDY    59  52  77 CALM      30.04F
MARSHALL       MOCLDY    63  48  59 SW13      30.01R
MONTEVIDEO     CLOUDY    66  52  59 SW7       30.00F
REDWOOD FALLS  PTCLDY    63  52  67 S9        30.01S
TRACY          CLEAR     66  51  57 SW13      30.03S
WINDOM         CLEAR     63  52  67 CALM      30.05S
WORTHINGTON    CLEAR     63  46  55 S10       30.06S
$$

IAZ001>003-012>014-020>022-031-032-NEZ013-014-SDZ071-281000-
NORTHWEST IOWA

CITY           SKY/WX    TMP DP  RH WIND       PRES   REMARKS
CHEROKEE       CLEAR     54  54 100 CALM      30.06S
DENISON        PTCLDY    61  55  82 SE7       30.05F
ESTHERVILLE    CLEAR     57  53  86 S8        30.06S
LE MARS        PTCLDY    61  54  77 S6        30.05S
ORANGE CITY    PTCLDY    61  52  72 S3        30.05S
SHELDON        CLEAR     59  52  77 SE6       30.04F
SIOUX CITY     PTCLDY    59  52  77 E8        30.04S
SPENCER        CLEAR     61  52  72 S3        30.06F
STORM LAKE     CLEAR     59  52  77 S10       30.08S
$$

ABBREVIATIONS USED IN REMARKS
   TC - TEMPERATURE IN CELSIUS
  WCI - WIND CHILL INDEX
   HX - HEAT INDEX
  VSB - VISIBILITY



USA.gov is the U.S. government's official web portal to all federal, state and local government web resources and services.